Weather in Yatmankino

Russia / Chuvash Republic     55°55′39″N   46°49′59″E
temp.,
°C
wind,
m/s
gust,
m/s
humid.,
%
clouds,
%
prec.,
mm/h
press.,
hPa
HPBL,
m
21 april, wed
wed2100:00+4ese81747100 0.0 1023640
03:00+4se91949100 0.0 1021721
06:00+2se112167100 0.7 1020816
09:00+1se112189100 3.8 1019795
12:00+3se111874100 0.1 1018789
15:00+3se10177986 0.4 1017772
18:00+2sse101788100 0.0 1017657
21:00+3sse91793100 0.3 1016587
22 april, thu
thu2200:00+4s81695100 0.7 1016735
03:00+5ssw61189100 0.7 1019562
06:00+4sse5990100 0.0 1020259
09:00+7sse61187100 0.0 1020512
12:00+9s81180100 0.1 1020929
15:00+10ssw7107435 0.4 10201075
18:00+9w357339 0.3 1021151
21:00+6sw11815 0.3 102310
23 april, fri
fri2300:00+4s22842 0.0 102313
03:00+4sse33860 0.0 102321
06:00+5s34845 0.0 102478
09:00+11sse34645 0.0 1023475
12:00+14sse345248 0.0 10231602
15:00+13se4661100 0.2 1022266
18:00+12se59705 0.0 1022312
21:00+7se410865 0.1 1021197
24 april, sat
sat2400:00+6se499213 0.0 1020158
03:00+5ese489495 0.0 1019159
06:00+5e4892100 0.0 1018250
09:00+9ese577463 0.0 1016643
12:00+11ese5665100 0.0 10131226
15:00+10ese567320 0.0 1012698
18:00+9se6107899 0.0 1011585
21:00+7se7138799 0.0 1009393
25 april, sun
sun2500:00+6se61392100 0.1 1006466
03:00+5wsw71184100 3.4 1007957
06:00+4wsw6107596 0.0 10081074
09:00+7wsw79649 0.1 10091349
12:00+10wsw81143100 0.1 10092535
15:00+11wsw8113896 0.1 10092729
18:00+9wsw475064 0.0 1010290
21:00+5sw346541 0.0 101257